When you browse on this site, cookies collect data to enhance your experience and personalize the content and advertising you see.
Visit our Privacy Policy to learn more. By continuing to use the site, you agree to this use of cookies and data.
  • In Hungary
  • List of Countries
  • For 7 days
  • Water Temperature
  • Weather Map
  • News
  • Weather Widgets
  • user-avatar
    Login

    Hourly Weather Katagoscha

    Today, 17 October, Thursday

    Time Temperature Precipitation Wind Pressure Humidity
    00:00 +5°C° 0 mm 6 mps 752 mmHg 66%
    01:00 +5°C° 0 mm 6 mps 752 mmHg 69%
    02:00 +5°C° 0 mm 6 mps 752 mmHg 72%
    03:00 +5°C° 0 mm 6 mps 751 mmHg 75%
    04:00 +5°C° 0 mm 6 mps 751 mmHg 79%
    05:00 +5°C° 0 mm 6 mps 750 mmHg 84%
    06:00 +5°C° 0 mm 6 mps 750 mmHg 88%
    07:00 +7°C° 0 mm 6 mps 750 mmHg 87%
    08:00 +8°C° 0 mm 6 mps 750 mmHg 86%
    09:00 +9°C° 0 mm 7 mps 750 mmHg 84%
    10:00 +10°C° 0 mm 7 mps 750 mmHg 81%
    11:00 +11°C° 0 mm 7 mps 749 mmHg 78%
    12:00 +14°C° 0 mm 7 mps 749 mmHg 74%
    13:00 +14°C° 0 mm 7 mps 749 mmHg 73%
    14:00 +15°C° 0 mm 6 mps 748 mmHg 73%
    15:00 +16°C° 0 mm 6 mps 748 mmHg 72%
    16:00 +15°C° 0 mm 6 mps 748 mmHg 77%
    17:00 +14°C° 0 mm 5 mps 748 mmHg 81%
    18:00 +13°C° 0 mm 5 mps 747 mmHg 86%
    19:00 +13°C° 0 mm 5 mps 747 mmHg 86%
    20:00 +12°C° 0 mm 5 mps 747 mmHg 86%
    21:00 +12°C° 0 mm 5 mps 747 mmHg 87%
    22:00 +12°C° 0 mm 5 mps 747 mmHg 87%
    23:00 +12°C° 0 mm 5 mps 746 mmHg 87%

    Tomorrow, 18 October, Friday

    Time Temperature Precipitation Wind Pressure Humidity
    00:00 +10°C° 0 mm 5 mps 746 mmHg 87%
    01:00 +10°C° 0 mm 5 mps 746 mmHg 88%
    02:00 +10°C° 0 mm 4 mps 746 mmHg 88%
    03:00 +10°C° 0 mm 4 mps 746 mmHg 89%
    04:00 +10°C° 0 mm 4 mps 746 mmHg 90%
    05:00 +8°C° 0 mm 4 mps 746 mmHg 91%
    06:00 +8°C° 0 mm 4 mps 746 mmHg 92%
    07:00 +10°C° 0 mm 4 mps 747 mmHg 91%
    08:00 +10°C° 0 mm 4 mps 747 mmHg 90%
    09:00 +10°C° 0 mm 4 mps 747 mmHg 88%
    10:00 +11°C° 0 mm 4 mps 747 mmHg 83%
    11:00 +12°C° 0 mm 4 mps 748 mmHg 78%
    12:00 +13°C° 0 mm 4 mps 748 mmHg 73%
    13:00 +13°C° 0 mm 4 mps 748 mmHg 72%
    14:00 +13°C° 0 mm 4 mps 748 mmHg 72%
    15:00 +14°C° 0 mm 4 mps 748 mmHg 71%
    16:00 +13°C° 0 mm 4 mps 748 mmHg 76%
    17:00 +12°C° 0 mm 3 mps 748 mmHg 81%
    18:00 +12°C° 0 mm 2 mps 748 mmHg 86%
    19:00 +10°C° 0 mm 2 mps 749 mmHg 88%
    20:00 +10°C° 0 mm 2 mps 749 mmHg 90%
    21:00 +10°C° 0 mm 1 mps 749 mmHg 92%
    22:00 +10°C° 0 mm 1 mps 749 mmHg 92%
    23:00 +10°C° 0 mm 1 mps 749 mmHg 93%

    Day after tomorrow, 19 October, Saturday

    Time Temperature Precipitation Wind Pressure Humidity
    00:00 +10°C° 0 mm 1 mps 750 mmHg 93%
    01:00 +9°C° 0 mm 1 mps 750 mmHg 93%
    02:00 +9°C° 0 mm 1 mps 750 mmHg 94%
    03:00 +9°C° 0 mm 1 mps 750 mmHg 94%
    04:00 +9°C° 0 mm 1 mps 750 mmHg 94%
    05:00 +9°C° 0 mm 1 mps 751 mmHg 94%
    06:00 +9°C° 0 mm 1 mps 751 mmHg 94%
    07:00 +10°C° 0 mm 1 mps 751 mmHg 92%
    08:00 +10°C° 0 mm 1 mps 751 mmHg 91%
    09:00 +11°C° 0 mm 1 mps 752 mmHg 89%
    10:00 +12°C° 0 mm 1 mps 752 mmHg 84%
    11:00 +13°C° 0 mm 2 mps 752 mmHg 79%
    12:00 +14°C° 0 mm 2 mps 752 mmHg 74%
    13:00 +14°C° 0 mm 2 mps 752 mmHg 74%
    14:00 +15°C° 0 mm 2 mps 752 mmHg 73%
    15:00 +15°C° 0 mm 2 mps 752 mmHg 72%
    16:00 +14°C° 0 mm 2 mps 752 mmHg 77%
    17:00 +13°C° 0 mm 2 mps 752 mmHg 82%
    18:00 +12°C° 0 mm 2 mps 752 mmHg 86%
    19:00 +12°C° 0 mm 2 mps 752 mmHg 88%
    20:00 +10°C° 0 mm 2 mps 752 mmHg 89%
    21:00 +10°C° 0 mm 2 mps 752 mmHg 91%
    22:00 +10°C° 0 mm 3 mps 752 mmHg 91%
    23:00 +10°C° 0 mm 3 mps 752 mmHg 92%

    20 October, Sunday

    Time Temperature Precipitation Wind Pressure Humidity
    00:00 +10°C° 0 mm 3 mps 752 mmHg 93%
    01:00 +10°C° 0 mm 3 mps 752 mmHg 93%
    02:00 +9°C° 0 mm 3 mps 752 mmHg 93%
    03:00 +9°C° 0 mm 3 mps 752 mmHg 93%
    04:00 +9°C° 0 mm 3 mps 752 mmHg 93%
    05:00 +9°C° 0 mm 3 mps 752 mmHg 93%
    06:00 +9°C° 0 mm 3 mps 752 mmHg 94%
    07:00 +9°C° 0 mm 3 mps 752 mmHg 91%
    08:00 +10°C° 0 mm 3 mps 753 mmHg 89%
    09:00 +10°C° 0 mm 3 mps 753 mmHg 87%
    10:00 +11°C° 0 mm 3 mps 753 mmHg 82%
    11:00 +12°C° 0 mm 3 mps 752 mmHg 78%
    12:00 +13°C° 0 mm 3 mps 752 mmHg 73%
    13:00 +14°C° 0 mm 3 mps 752 mmHg 73%
    14:00 +14°C° 0 mm 3 mps 752 mmHg 73%
    15:00 +16°C° 0 mm 3 mps 752 mmHg 72%
    16:00 +14°C° 0 mm 3 mps 752 mmHg 76%
    17:00 +13°C° 0 mm 3 mps 752 mmHg 79%
    18:00 +12°C° 0 mm 3 mps 752 mmHg 83%
    19:00 +12°C° 0 mm 3 mps 752 mmHg 83%
    20:00 +12°C° 0 mm 4 mps 752 mmHg 84%
    21:00 +12°C° 0 mm 4 mps 752 mmHg 84%
    22:00 +12°C° 0 mm 4 mps 752 mmHg 85%
    23:00 +11°C° 0 mm 4 mps 752 mmHg 85%

    21 October, Monday

    Time Temperature Precipitation Wind Pressure Humidity
    00:00 +11°C° 0 mm 4 mps 752 mmHg 86%
    01:00 +11°C° 0 mm 4 mps 752 mmHg 87%
    02:00 +11°C° 0 mm 4 mps 752 mmHg 87%
    03:00 +10°C° 0 mm 4 mps 751 mmHg 88%
    04:00 +10°C° 0 mm 4 mps 751 mmHg 88%
    05:00 +10°C° 0 mm 4 mps 751 mmHg 88%
    06:00 +10°C° 0 mm 4 mps 751 mmHg 88%
    07:00 +10°C° 0 mm 4 mps 751 mmHg 85%
    08:00 +11°C° 0 mm 4 mps 751 mmHg 82%
    09:00 +11°C° 0 mm 4 mps 751 mmHg 79%
    10:00 +13°C° 0 mm 5 mps 751 mmHg 74%
    11:00 +14°C° 0 mm 5 mps 751 mmHg 69%
    12:00 +15°C° 0 mm 5 mps 751 mmHg 64%
    13:00 +15°C° 0 mm 5 mps 750 mmHg 63%
    14:00 +16°C° 0 mm 5 mps 750 mmHg 61%
    15:00 +16°C° 0 mm 6 mps 750 mmHg 60%
    16:00 +15°C° 0 mm 5 mps 750 mmHg 63%
    17:00 +14°C° 0 mm 5 mps 749 mmHg 67%
    18:00 +13°C° 0 mm 4 mps 749 mmHg 71%
    19:00 +13°C° 0 mm 4 mps 749 mmHg 71%
    20:00 +13°C° 0 mm 5 mps 749 mmHg 72%
    21:00 +13°C° 0 mm 5 mps 749 mmHg 72%
    22:00 +12°C° 0 mm 4 mps 749 mmHg 75%
    23:00 +12°C° 0 mm 4 mps 749 mmHg 78%

    22 October, Tuesday

    Time Temperature Precipitation Wind Pressure Humidity
    00:00 +11°C° 0 mm 4 mps 749 mmHg 81%
    01:00 +11°C° 0 mm 4 mps 748 mmHg 82%
    02:00 +11°C° 0 mm 4 mps 748 mmHg 83%
    03:00 +11°C° 0 mm 4 mps 748 mmHg 83%
    04:00 +10°C° 0 mm 4 mps 748 mmHg 83%
    05:00 +10°C° 0 mm 4 mps 747 mmHg 83%
    06:00 +9°C° 0 mm 5 mps 747 mmHg 84%
    07:00 +10°C° 0 mm 5 mps 747 mmHg 81%
    08:00 +10°C° 0 mm 5 mps 747 mmHg 79%
    09:00 +10°C° 0 mm 6 mps 746 mmHg 77%
    10:00 +11°C° 0 mm 6 mps 746 mmHg 73%
    11:00 +13°C° 0 mm 6 mps 746 mmHg 69%
    12:00 +15°C° 0 mm 6 mps 745 mmHg 65%
    13:00 +15°C° 0 mm 6 mps 745 mmHg 64%
    14:00 +15°C° 0 mm 6 mps 744 mmHg 64%
    15:00 +15°C° 0 mm 6 mps 744 mmHg 63%
    16:00 +15°C° 0 mm 5 mps 744 mmHg 66%
    17:00 +14°C° 0 mm 5 mps 743 mmHg 69%
    18:00 +14°C° 0 mm 4 mps 743 mmHg 72%
    19:00 +13°C° 0 mm 4 mps 743 mmHg 75%
    20:00 +13°C° 0 mm 4 mps 743 mmHg 79%
    21:00 +12°C° 0 mm 3 mps 743 mmHg 82%
    22:00 +12°C° 0.2 mm 3 mps 743 mmHg 85%
    23:00 +12°C° 0.2 mm 3 mps 743 mmHg 88%
    Show more